TimeCDT,TemperatureF,Dew PointF,Humidity,Sea Level PressureIn,VisibilityMPH,Wind Direction,Wind SpeedMPH,Gust SpeedMPH,PrecipitationIn,Events,Conditions,WindDirDegrees,DateUTC
12:53 AM,54.0,46.0,75,29.92,10.0,East,3.5,-,N/A,,Scattered Clouds,90,2011-10-27 05:53:00
1:53 AM,52.0,45.0,77,29.92,10.0,Calm,Calm,-,N/A,,Partly Cloudy,0,2011-10-27 06:53:00
2:53 AM,51.8,44.6,76,29.92,10.0,Calm,Calm,-,N/A,,Partly Cloudy,0,2011-10-27 07:53:00
3:53 AM,51.1,45.0,80,29.90,10.0,ESE,3.5,-,N/A,,Partly Cloudy,120,2011-10-27 08:53:00
4:53 AM,51.1,46.0,83,29.89,10.0,Calm,Calm,-,N/A,,Partly Cloudy,0,2011-10-27 09:53:00
5:53 AM,52.0,46.0,80,29.89,10.0,ESE,3.5,-,N/A,,Partly Cloudy,110,2011-10-27 10:53:00
6:53 AM,53.6,46.4,77,29.92,10.0,SSE,3.5,-,N/A,,Partly Cloudy,150,2011-10-27 11:53:00
7:53 AM,57.0,48.9,74,29.92,10.0,ENE,3.5,-,N/A,,Mostly Cloudy,60,2011-10-27 12:53:00
8:53 AM,60.1,52.0,75,29.90,10.0,SSE,4.6,-,N/A,,Mostly Cloudy,160,2011-10-27 13:53:00
9:53 AM,66.0,54.0,65,29.91,10.0,WSW,9.2,-,N/A,,Mostly Cloudy,250,2011-10-27 14:53:00
10:10 AM,66.2,53.6,64,29.92,10.0,WSW,8.1,-,N/A,,Mostly Cloudy,240,2011-10-27 15:10:00
10:29 AM,66.2,55.4,68,29.92,10.0,SW,9.2,-,N/A,,Overcast,230,2011-10-27 15:29:00
10:53 AM,66.9,55.0,66,29.91,10.0,WSW,9.2,-,N/A,,Mostly Cloudy,240,2011-10-27 15:53:00
11:06 AM,69.8,55.4,60,29.92,10.0,SW,9.2,-,N/A,,Mostly Cloudy,230,2011-10-27 16:06:00
11:53 AM,70.0,55.9,61,29.90,10.0,West,9.2,-,N/A,,Overcast,270,2011-10-27 16:53:00
12:53 PM,68.0,55.0,63,29.91,10.0,West,5.8,-,N/A,,Overcast,280,2011-10-27 17:53:00
1:53 PM,69.1,55.0,61,29.89,10.0,NW,8.1,-,N/A,,Overcast,310,2011-10-27 18:53:00
2:53 PM,63.0,54.0,72,29.91,10.0,NNW,12.7,20.7,0.00,,Overcast,330,2011-10-27 19:53:00
3:40 PM,57.2,51.8,82,29.94,10.0,North,11.5,-,N/A,,Overcast,350,2011-10-27 20:40:00
3:53 PM,57.0,50.0,77,29.94,10.0,North,12.7,19.6,N/A,,Overcast,360,2011-10-27 20:53:00
4:53 PM,55.0,48.9,80,29.97,4.0,North,11.5,19.6,N/A,,Haze,360,2011-10-27 21:53:00
5:53 PM,54.0,48.9,83,29.98,4.0,North,9.2,-,0.00,Rain,Light Rain,10,2011-10-27 22:53:00
6:31 PM,53.6,50.0,88,29.98,3.0,North,4.6,-,0.00,,Overcast,10,2011-10-27 23:31:00
6:53 PM,53.1,48.9,86,30.00,4.0,North,8.1,-,0.00,Rain,Light Rain,350,2011-10-27 23:53:00
7:16 PM,51.8,48.2,88,30.01,2.5,North,11.5,-,0.01,Rain,Light Rain,360,2011-10-28 00:16:00
7:20 PM,51.8,48.2,88,30.01,2.5,North,11.5,-,0.01,Rain,Light Rain,360,2011-10-28 00:20:00
7:45 PM,51.8,48.2,88,30.02,2.5,North,5.8,-,0.02,Rain,Light Rain,10,2011-10-28 00:45:00
7:53 PM,52.0,48.9,89,30.01,2.5,NNE,6.9,-,0.02,,Overcast,20,2011-10-28 00:53:00
7:58 PM,51.8,48.2,88,30.01,3.0,NNE,8.1,-,N/A,,Overcast,20,2011-10-28 00:58:00
8:07 PM,51.8,48.2,88,30.01,4.0,NNE,6.9,-,N/A,,Overcast,30,2011-10-28 01:07:00
8:19 PM,51.8,48.2,88,30.01,4.0,NNE,4.6,-,N/A,,Overcast,30,2011-10-28 01:19:00
8:43 PM,51.8,48.2,88,30.02,4.0,North,6.9,-,N/A,,Overcast,360,2011-10-28 01:43:00
8:53 PM,52.0,48.0,86,30.02,10.0,North,8.1,-,N/A,,Overcast,360,2011-10-28 01:53:00
9:53 PM,52.0,48.0,86,30.02,10.0,NNE,8.1,-,N/A,,Overcast,20,2011-10-28 02:53:00
10:53 PM,52.0,46.9,83,30.02,10.0,NNE,9.2,-,N/A,,Overcast,20,2011-10-28 03:53:00
11:37 PM,51.8,46.4,82,30.01,10.0,NE,12.7,-,N/A,,Overcast,40,2011-10-28 04:37:00
11:53 PM,52.0,46.9,83,29.99,10.0,NE,10.4,-,N/A,,Overcast,50,2011-10-28 04:53:00